Terminal Aerodrome Forecast
Issued by NWS

Home | Current Version | Previous Version | Graphics & Text | Print | Product List | Glossary On
Versions: 1 2 3 4 5 6 7 8 9 10 11 12 13 14
000
FTUS43 KFGF 241100
TAFBJI
TAF
KBJI 241123Z 2412/2512 VRB06KT P6SM OVC004
     FM241800 VRB06KT P6SM OVC008
     FM242100 22006KT P6SM OVC015=

USA.gov is the U.S. government's official web portal to all federal, state and local government web resources and services.